| time (UTC) | temp C | wind direction | speed KPH | gust KPH | rain 1hr cm | rain 24hr cm | rain mn cm | humidity % | barometer mb |
| 20260510061704 | 9 | 39 | 9.7 | 19.3 | 0.00 | 0.00 | 0.00 | 86 | 1017.3 |
| 20260510061204 | 9 | 52 | 9.7 | 20.9 | 0.00 | 0.00 | 0.00 | 87 | 1017.3 |
| 20260510060703 | 9 | 36 | 6.4 | 20.9 | 0.00 | 0.00 | 0.00 | 86 | 1017.2 |
| 20260510054704 | 9 | 344 | 8.0 | 16.1 | 0.00 | 0.00 | 0.00 | 87 | 1017.2 |
| 20260510053704 | 9 | 49 | 9.7 | 20.9 | 0.00 | 0.00 | 0.00 | 87 | 1017.3 |
| 20260510053204 | 9 | 47 | 8.0 | 24.1 | 0.00 | 0.00 | 0.00 | 87 | 1017.3 |
| 20260510051204 | 9 | 21 | 8.0 | 16.1 | 0.00 | 0.00 | 0.00 | 87 | 1017.3 |
| 20260510050704 | 9 | 51 | 6.4 | 27.4 | 0.00 | 0.00 | 0.00 | 87 | 1017.3 |
| 20260510050204 | 8 | 46 | 6.4 | 22.5 | 0.00 | 0.00 | 0.00 | 87 | 1017.3 |
| 20260510044704 | 8 | 34 | 8.0 | 20.9 | 0.00 | 0.00 | 0.00 | 87 | 1017.3 |
| 20260510044204 | 8 | 31 | 11.3 | 22.5 | 0.00 | 0.00 | 0.00 | 87 | 1017.2 |
| 20260510043704 | 8 | 42 | 8.0 | 20.9 | 0.00 | 0.00 | 0.00 | 88 | 1017.2 |
| 20260510043204 | 8 | 15 | 8.0 | 20.9 | 0.00 | 0.00 | 0.00 | 88 | 1017.3 |
| 20260510041704 | 8 | 32 | 6.4 | 20.9 | 0.00 | 0.00 | 0.00 | 88 | 1017.4 |
| 20260510041204 | 8 | 53 | 4.8 | 20.9 | 0.00 | 0.00 | 0.00 | 87 | 1017.3 |
| 20260510040704 | 8 | 52 | 6.4 | 14.5 | 0.00 | 0.00 | 0.00 | 87 | 1017.3 |
| 20260510040203 | 8 | 341 | 4.8 | 20.9 | 0.00 | 0.00 | 0.00 | 88 | 1017.4 |
| 20260510034203 | 8 | 62 | 9.7 | 20.9 | 0.00 | 0.00 | 0.00 | 87 | 1017.5 |
| 20260510033204 | 9 | 52 | 4.8 | 20.9 | 0.00 | 0.00 | 0.00 | 87 | 1017.6 |
| 20260510030703 | 9 | 23 | 8.0 | 20.9 | 0.00 | 0.00 | 0.00 | 87 | 1017.7 |
| 20260510030204 | 9 | 8 | 6.4 | 22.5 | 0.00 | 0.00 | 0.00 | 87 | 1017.8 |
| 20260510024703 | 9 | 41 | 6.4 | 19.3 | 0.00 | 0.00 | 0.00 | 86 | 1017.7 |
| 20260510024203 | 9 | 60 | 4.8 | 14.5 | 0.00 | 0.00 | 0.00 | 87 | 1017.7 |
| 20260510023704 | 9 | 17 | 4.8 | 12.9 | 0.00 | 0.00 | 0.00 | 86 | 1017.7 |
| 20260510023204 | 9 | 68 | 6.4 | 20.9 | 0.00 | 0.00 | 0.00 | 86 | 1017.7 |
| 20260510021704 | 9 | 67 | 3.2 | 12.9 | 0.00 | 0.00 | 0.00 | 86 | 1017.8 |
| 20260510020704 | 9 | 57 | 8.0 | 16.1 | 0.00 | 0.00 | 0.00 | 85 | 1017.7 |
| 20260510020204 | 10 | 55 | 8.0 | 24.1 | 0.00 | 0.00 | 0.00 | 85 | 1017.6 |
| 20260510014703 | 10 | 335 | 4.8 | 16.1 | 0.00 | 0.00 | 0.00 | 84 | 1017.6 |
| 20260510014204 | 10 | 1 | 3.2 | 14.5 | 0.00 | 0.00 | 0.00 | 84 | 1017.6 |
| 20260510013704 | 10 | 24 | 11.3 | 19.3 | 0.00 | 0.00 | 0.00 | 83 | 1017.7 |
| 20260510013204 | 10 | 39 | 4.8 | 20.9 | 0.00 | 0.00 | 0.00 | 82 | 1017.7 |
| 20260510011204 | 10 | 51 | 6.4 | 12.9 | 0.00 | 0.00 | 0.00 | 78 | 1018.0 |
| 20260510010204 | 10 | 10 | 4.8 | 24.1 | 0.00 | 0.00 | 0.00 | 74 | 1017.7 |
| 20260510004704 | 11 | 6 | 4.8 | 11.3 | 0.00 | 0.00 | 0.00 | 69 | 1017.7 |
| 20260510004204 | 11 | 3 | 8.0 | 11.3 | 0.00 | 0.00 | 0.00 | 68 | 1017.8 |
| 20260510003704 | 11 | 12 | 6.4 | 22.5 | 0.00 | 0.00 | 0.00 | 67 | 1017.7 |
| 20260510003204 | 11 | 10 | 9.7 | 20.9 | 0.00 | 0.00 | 0.00 | 67 | 1017.7 |
| 20260510001703 | 11 | 23 | 1.6 | 14.5 | 0.00 | 0.00 | 0.00 | 67 | 1017.7 |
| 20260509234703 | 12 | 57 | 4.8 | 20.9 | 0.00 | 0.00 | 0.00 | 65 | 1017.6 |
| 20260509234204 | 12 | 45 | 6.4 | 20.9 | 0.00 | 0.00 | 0.00 | 64 | 1017.5 |
| 20260509231203 | 12 | 40 | 8.0 | 19.3 | 0.00 | 0.00 | 0.00 | 61 | 1017.5 |
| 20260509230203 | 12 | 39 | 6.4 | 20.9 | 0.00 | 0.00 | 0.00 | 61 | 1017.6 |
| 20260509224704 | 12 | 44 | 4.8 | 14.5 | 0.00 | 0.00 | 0.00 | 61 | 1017.5 |
| 20260509224204 | 12 | 35 | 4.8 | 16.1 | 0.00 | 0.00 | 0.00 | 61 | 1017.4 |
| 20260509223704 | 12 | 55 | 8.0 | 12.9 | 0.00 | 0.00 | 0.00 | 61 | 1017.4 |
| 20260509223204 | 12 | 21 | 3.2 | 20.9 | 0.00 | 0.00 | 0.00 | 61 | 1017.5 |
| 20260509221704 | 12 | 70 | 3.2 | 8.0 | 0.00 | 0.00 | 0.00 | 59 | 1017.5 |
| 20260509221204 | 12 | 37 | 1.6 | 4.8 | 0.00 | 0.00 | 0.00 | 59 | 1017.4 |
| 20260509220704 | 12 | 41 | 1.6 | 3.2 | 0.00 | 0.00 | 0.00 | 59 | 1017.4 |
| 20260509220204 | 12 | 38 | 3.2 | 9.7 | 0.00 | 0.00 | 0.00 | 58 | 1017.4 |
| 20260509214705 | 13 | 36 | 3.2 | 8.0 | 0.00 | 0.00 | 0.00 | 57 | 1017.5 |
| 20260509214204 | 13 | 60 | 3.2 | 8.0 | 0.00 | 0.00 | 0.00 | 57 | 1017.6 |
| 20260509213705 | 13 | 68 | 3.2 | 11.3 | 0.00 | 0.00 | 0.00 | 56 | 1017.6 |
| 20260509213204 | 13 | 115 | 1.6 | 14.5 | 0.00 | 0.00 | 0.00 | 56 | 1017.6 |
| 20260509211705 | 13 | 78 | 4.8 | 14.5 | 0.00 | 0.00 | 0.00 | 56 | 1017.5 |
| 20260509211204 | 13 | 92 | 6.4 | 11.3 | 0.00 | 0.00 | 0.00 | 56 | 1017.3 |
| 20260509210704 | 13 | 72 | 3.2 | 9.7 | 0.00 | 0.00 | 0.00 | 55 | 1017.2 |
| 20260509210204 | 14 | 18 | 3.2 | 12.9 | 0.00 | 0.00 | 0.00 | 56 | 1017.2 |
| 20260509204704 | 14 | 69 | 4.8 | 14.5 | 0.00 | 0.00 | 0.00 | 55 | 1017.1 |
| 20260509204204 | 14 | 51 | 3.2 | 12.9 | 0.00 | 0.00 | 0.00 | 55 | 1017.1 |
| 20260509203703 | 15 | 45 | 6.4 | 11.3 | 0.00 | 0.00 | 0.00 | 55 | 1017.1 |
| 20260509203203 | 15 | 67 | 6.4 | 14.5 | 0.00 | 0.00 | 0.00 | 55 | 1017.0 |
| 20260509201703 | 15 | 89 | 1.6 | 11.3 | 0.00 | 0.00 | 0.00 | 54 | 1017.0 |
| 20260509201204 | 15 | 55 | 4.8 | 11.3 | 0.00 | 0.00 | 0.00 | 54 | 1016.9 |
| 20260509200703 | 15 | 62 | 4.8 | 16.1 | 0.00 | 0.00 | 0.00 | 54 | 1016.8 |
| 20260509200204 | 15 | 54 | 3.2 | 11.3 | 0.00 | 0.00 | 0.00 | 53 | 1016.9 |
| 20260509194703 | 16 | 42 | 3.2 | 11.3 | 0.00 | 0.00 | 0.00 | 53 | 1016.7 |
| 20260509194204 | 16 | 109 | 4.8 | 16.1 | 0.00 | 0.00 | 0.00 | 52 | 1016.7 |
| 20260509193704 | 16 | 120 | 1.6 | 4.8 | 0.00 | 0.00 | 0.00 | 52 | 1016.6 |
| 20260509193203 | 16 | 104 | 3.2 | 11.3 | 0.00 | 0.00 | 0.00 | 52 | 1016.6 |
| 20260509191704 | 16 | 86 | 6.4 | 16.1 | 0.00 | 0.00 | 0.00 | 50 | 1016.5 |
| 20260509191204 | 16 | 98 | 4.8 | 14.5 | 0.00 | 0.00 | 0.00 | 50 | 1016.5 |
| 20260509190703 | 17 | 95 | 9.7 | 14.5 | 0.00 | 0.00 | 0.00 | 50 | 1016.4 |
| 20260509190204 | 17 | 47 | 4.8 | 20.9 | 0.00 | 0.00 | 0.00 | 49 | 1016.4 |
| 20260509183704 | 18 | 112 | 4.8 | 14.5 | 0.00 | 0.00 | 0.00 | 47 | 1016.2 |
| 20260509183203 | 18 | 105 | 9.7 | 19.3 | 0.00 | 0.00 | 0.00 | 46 | 1016.1 |
| 20260509181204 | 19 | 108 | 8.0 | 19.3 | 0.00 | 0.00 | 0.00 | 45 | 1016.0 |
| 20260509180704 | 19 | 69 | 9.7 | 20.9 | 0.00 | 0.00 | 0.00 | 46 | 1016.0 |
| 20260509174704 | 19 | 69 | 9.7 | 16.1 | 0.00 | 0.00 | 0.00 | 45 | 1015.8 |
| 20260509174204 | 20 | 91 | 8.0 | 16.1 | 0.00 | 0.00 | 0.00 | 46 | 1015.7 |
| 20260509173703 | 20 | 58 | 8.0 | 19.3 | 0.00 | 0.00 | 0.00 | 45 | 1015.8 |
| 20260509173203 | 20 | 100 | 8.0 | 20.9 | 0.00 | 0.00 | 0.00 | 46 | 1015.7 |
| 20260509171704 | 20 | 77 | 9.7 | 19.3 | 0.00 | 0.00 | 0.00 | 44 | 1015.7 |
| 20260509171203 | 20 | 97 | 4.8 | 14.5 | 0.00 | 0.00 | 0.00 | 44 | 1015.7 |
| 20260509170704 | 20 | 57 | 9.7 | 16.1 | 0.00 | 0.00 | 0.00 | 42 | 1015.8 |
| 20260509170203 | 21 | 85 | 4.8 | 22.5 | 0.00 | 0.00 | 0.00 | 43 | 1015.8 |
| 20260509164703 | 21 | 75 | 4.8 | 16.1 | 0.00 | 0.00 | 0.00 | 41 | 1015.8 |
| 20260509164203 | 22 | 88 | 4.8 | 20.9 | 0.00 | 0.00 | 0.00 | 41 | 1015.8 |
| 20260509163704 | 22 | 71 | 9.7 | 20.9 | 0.00 | 0.00 | 0.00 | 41 | 1015.7 |
| 20260509163204 | 22 | 60 | 6.4 | 20.9 | 0.00 | 0.00 | 0.00 | 40 | 1015.7 |
| 20260509161703 | 22 | 48 | 9.7 | 20.9 | 0.00 | 0.00 | 0.00 | 40 | 1015.6 |
| 20260509161203 | 22 | 95 | 8.0 | 19.3 | 0.00 | 0.00 | 0.00 | 40 | 1015.7 |
| 20260509160704 | 22 | 80 | 9.7 | 19.3 | 0.00 | 0.00 | 0.00 | 39 | 1015.7 |
| 20260509160204 | 22 | 56 | 8.0 | 19.3 | 0.00 | 0.00 | 0.00 | 41 | 1015.7 |
| 20260509154703 | 22 | 64 | 3.2 | 12.9 | 0.00 | 0.00 | 0.00 | 39 | 1015.9 |
| 20260509153704 | 22 | 35 | 4.8 | 11.3 | 0.00 | 0.00 | 0.00 | 40 | 1016.0 |
| 20260509153204 | 22 | 53 | 3.2 | 14.5 | 0.00 | 0.00 | 0.00 | 41 | 1015.9 |
| 20260509151704 | 22 | 66 | 9.7 | 19.3 | 0.00 | 0.00 | 0.00 | 40 | 1016.1 |
| 20260509150704 | 22 | 48 | 6.4 | 22.5 | 0.00 | 0.00 | 0.00 | 40 | 1016.0 |
| 20260509150204 | 23 | 154 | 4.8 | 16.1 | 0.00 | 0.00 | 0.00 | 40 | 1016.1 |
| 20260509144703 | 21 | 54 | 8.0 | 19.3 | 0.00 | 0.00 | 0.00 | 43 | 1016.1 |
| 20260509144203 | 21 | 78 | 4.8 | 14.5 | 0.00 | 0.00 | 0.00 | 44 | 1016.2 |
| 20260509143204 | 21 | 100 | 8.0 | 25.7 | 0.00 | 0.00 | 0.00 | 42 | 1016.2 |
| 20260509141204 | 22 | 118 | 9.7 | 22.5 | 0.00 | 0.00 | 0.00 | 43 | 1015.9 |
| 20260509140704 | 21 | 289 | 3.2 | 12.9 | 0.00 | 0.00 | 0.00 | 44 | 1015.8 |
| 20260509140204 | 21 | 59 | 8.0 | 22.5 | 0.00 | 0.00 | 0.00 | 45 | 1016.0 |
| 20260509134704 | 22 | 84 | 4.8 | 16.1 | 0.00 | 0.00 | 0.00 | 46 | 1016.2 |
| 20260509134205 | 21 | 99 | 3.2 | 14.5 | 0.00 | 0.00 | 0.00 | 45 | 1016.1 |
| 20260509133704 | 21 | 63 | 6.4 | 16.1 | 0.00 | 0.00 | 0.00 | 45 | 1016.2 |
| 20260509133204 | 21 | 65 | 9.7 | 22.5 | 0.00 | 0.00 | 0.00 | 46 | 1016.3 |
| 20260509131705 | 22 | 77 | 6.4 | 14.5 | 0.00 | 0.00 | 0.00 | 46 | 1016.3 |
| 20260509131203 | 21 | 89 | 11.3 | 20.9 | 0.00 | 0.00 | 0.00 | 47 | 1016.4 |
| 20260509130704 | 21 | 48 | 16.1 | 22.5 | 0.00 | 0.00 | 0.00 | 46 | 1016.4 |
| 20260509130204 | 21 | 62 | 11.3 | 22.5 | 0.00 | 0.00 | 0.00 | 47 | 1016.5 |
| 20260509124704 | 21 | 328 | 3.2 | 11.3 | 0.00 | 0.00 | 0.00 | 46 | 1016.5 |
| 20260509124203 | 21 | 41 | 14.5 | 22.5 | 0.00 | 0.00 | 0.00 | 45 | 1016.7 |
| 20260509123704 | 21 | 134 | 4.8 | 16.1 | 0.00 | 0.00 | 0.00 | 48 | 1016.7 |
| 20260509120703 | 21 | 102 | 9.7 | 19.3 | 0.00 | 0.00 | 0.00 | 49 | 1016.9 |
| 20260509120204 | 20 | 140 | 8.0 | 20.9 | 0.00 | 0.00 | 0.00 | 53 | 1016.9 |
| 20260509113204 | 20 | 54 | 8.0 | 19.3 | 0.00 | 0.00 | 0.00 | 51 | 1017.3 |
| 20260509111204 | 20 | 20 | 4.8 | 16.1 | 0.00 | 0.00 | 0.00 | 53 | 1017.4 |
| 20260509110203 | 20 | 80 | 8.0 | 19.3 | 0.00 | 0.00 | 0.00 | 56 | 1017.6 |
| 20260509104704 | 19 | 47 | 8.0 | 19.3 | 0.00 | 0.00 | 0.00 | 57 | 1017.7 |
| 20260509104203 | 19 | 62 | 6.4 | 25.7 | 0.00 | 0.00 | 0.00 | 56 | 1017.7 |
| 20260509103704 | 20 | 72 | 6.4 | 14.5 | 0.00 | 0.00 | 0.00 | 58 | 1017.8 |
| 20260509103204 | 18 | 52 | 4.8 | 19.3 | 0.00 | 0.00 | 0.00 | 59 | 1017.8 |
| 20260509101704 | 18 | 111 | 3.2 | 20.9 | 0.00 | 0.00 | 0.00 | 62 | 1018.0 |
| 20260509101204 | 18 | 51 | 11.3 | 19.3 | 0.00 | 0.00 | 0.00 | 61 | 1017.9 |
| 20260509100704 | 18 | 49 | 9.7 | 20.9 | 0.00 | 0.00 | 0.00 | 61 | 1017.9 |
| 20260509100203 | 18 | 45 | 8.0 | 20.9 | 0.00 | 0.00 | 0.00 | 62 | 1017.8 |
| 20260509094704 | 18 | 128 | 8.0 | 20.9 | 0.00 | 0.00 | 0.00 | 64 | 1018.1 |
| 20260509094204 | 18 | 51 | 6.4 | 20.9 | 0.00 | 0.00 | 0.00 | 64 | 1018.0 |
| 20260509093203 | 17 | 88 | 8.0 | 20.9 | 0.00 | 0.00 | 0.00 | 63 | 1018.1 |
| 20260509091703 | 17 | 60 | 4.8 | 14.5 | 0.00 | 0.00 | 0.00 | 66 | 1018.2 |
| 20260509090703 | 17 | 153 | 1.6 | 9.7 | 0.00 | 0.00 | 0.00 | 69 | 1018.1 |
| 20260509090204 | 17 | 61 | 3.2 | 19.3 | 0.00 | 0.00 | 0.00 | 70 | 1018.2 |
| 20260509084705 | 16 | 94 | 4.8 | 16.1 | 0.00 | 0.00 | 0.00 | 71 | 1018.3 |
| 20260509084204 | 16 | 113 | 1.6 | 16.1 | 0.00 | 0.00 | 0.00 | 73 | 1018.3 |
| 20260509083704 | 16 | 64 | 3.2 | 16.1 | 0.00 | 0.00 | 0.00 | 73 | 1018.3 |
| 20260509083203 | 15 | 85 | 1.6 | 11.3 | 0.00 | 0.00 | 0.00 | 74 | 1018.3 |
| 20260509081704 | 14 | 108 | 8.0 | 14.5 | 0.00 | 0.00 | 0.00 | 79 | 1018.4 |
| 20260509081204 | 13 | 129 | 3.2 | 8.0 | 0.00 | 0.00 | 0.00 | 80 | 1018.4 |
| 20260509080704 | 13 | 54 | 4.8 | 9.7 | 0.00 | 0.00 | 0.00 | 81 | 1018.4 |
| 20260509080204 | 13 | 80 | 3.2 | 8.0 | 0.00 | 0.00 | 0.00 | 83 | 1018.4 |
| 20260509074704 | 12 | 62 | 3.2 | 11.3 | 0.00 | 0.00 | 0.00 | 84 | 1018.5 |
| 20260509074204 | 12 | 105 | 3.2 | 8.0 | 0.00 | 0.00 | 0.00 | 85 | 1018.5 |
| 20260509073703 | 12 | 49 | 3.2 | 8.0 | 0.00 | 0.00 | 0.00 | 85 | 1018.4 |
| 20260509071704 | 11 | 123 | 3.2 | 8.0 | 0.00 | 0.00 | 0.00 | 87 | 1018.3 |
| 20260509071203 | 11 | 103 | 6.4 | 16.1 | 0.00 | 0.00 | 0.00 | 88 | 1018.3 |
| 20260509070704 | 11 | 98 | 1.6 | 3.2 | 0.00 | 0.00 | 0.00 | 88 | 1018.2 |
| 20260509064704 | 10 | 53 | 3.2 | 12.9 | 0.00 | 0.00 | 0.00 | 88 | 1018.0 |
| 20260509064204 | 10 | 59 | 4.8 | 11.3 | 0.00 | 0.00 | 0.00 | 89 | 1018.1 |
| 20260509063703 | 10 | 54 | 4.8 | 12.9 | 0.00 | 0.00 | 0.00 | 89 | 1018.0 |